This is the latest recevied weather packets stored in our database for station/object Waldburg. If no packets are shown the sender has not sent any weather packets the latest 10 day(s).
| Time | Temp. | Humidity | Pressure | Rain* | Wind** | Luminosity | Snow |
|---|---|---|---|---|---|---|---|
| 1777462330 | 16.11° C | 47% | 1017.1 hPa | 0 mm | - | - | - |
| 1777460530 | 15.56° C | 49% | 1017.1 hPa | 0 mm | - | - | - |
| 1777458730 | 15° C | 51% | 1017.1 hPa | 0 mm | - | - | - |
| 1777456931 | 14.44° C | 54% | 1017.1 hPa | 0 mm | - | - | - |
| 1777455131 | 13.89° C | 56% | 1017.1 hPa | 0 mm | - | - | - |
| 1777453332 | 12.22° C | 59% | 1016.9 hPa | 0 mm | - | - | - |
| 1777451531 | 10.56° C | 64% | 1016.9 hPa | 0 mm | - | - | - |
| 1777449731 | 10° C | 63% | 1016.7 hPa | 0 mm | - | - | - |
| 1777447931 | 10° C | 62% | 1016.4 hPa | 0 mm | - | - | - |
| 1777446131 | 9.44° C | 62% | 1016.5 hPa | 0 mm | - | - | - |
| 1777444331 | 9.44° C | 62% | 1016.2 hPa | 0 mm | - | - | - |
| 1777442531 | 9.44° C | 62% | 1015.9 hPa | 0 mm | - | - | - |
| 1777440731 | 9.44° C | 62% | 1015.6 hPa | 0 mm | - | - | - |
| 1777438931 | 9.44° C | 62% | 1015.4 hPa | 0 mm | - | - | - |
| 1777437132 | 9.44° C | 61% | 1015.2 hPa | 0 mm | - | - | - |
| 1777435331 | 10° C | 60% | 1014.9 hPa | 0 mm | - | - | - |
| 1777433531 | 10° C | 60% | 1014.8 hPa | 0 mm | - | - | - |
| 1777431732 | 10.56° C | 59% | 1014.5 hPa | 0 mm | - | - | - |
| 1777429932 | 10.56° C | 58% | 1014.4 hPa | 0 mm | - | - | - |
| 1777428132 | 11.11° C | 57% | 1014.4 hPa | 0 mm | - | - | - |
| 1777426337 | 11.11° C | 56% | 1014.3 hPa | 0 mm | - | - | - |
| 1777424532 | 11.11° C | 55% | 1014.3 hPa | 0 mm | - | - | - |
| 1777422731 | 11.11° C | 54% | 1014.3 hPa | 0 mm | - | - | - |
| 1777420930 | 11.67° C | 53% | 1014.6 hPa | 0 mm | - | - | - |
| 1777419130 | 12.22° C | 53% | 1014.9 hPa | 0 mm | - | - | - |
* Rain since midnight (hover to see other rain measurements)
** Current wind speed in m/s (hover to see current wind gust speed)